CZ-6A DEB

Satellite information

Favourite Embed

Satellite Type and Status

DEBRISIN ORBIT

Key statistics

Satellite CZ-6A DEB at a glance.

Uptime

335

Days in orbit

Revolutions

≈ 14.1

Per day

Orbit

LEO

Low Earth Orbit

Inclination

89.0

Latest

Satellite identification and parameters

Extended collection of information and parameters for CZ-6A DEB.

Object identification

Identified? True

Debris? True

Object name: CZ-6A DEB

International designator: 2024-140NA

Object number (NORAD): 61084

Object ID (CCSDS): 61084

Country: PEOPLES REPUBLIC OF CHINA (PRC)

Current information (Y/N): Y

RCS size: SMALL

Orbital parameters

Period: 101.982 minutes

Inclination: 88.9995 deg

SMA: 7230.623 km

Apoapsis: 916.891 km

Periapsis: 788.085 km

RAAN: 314.0339 deg

Eccentricy: 0.008907

Argument of periapsis: 251.078 deg

Mean anomaly: 108.0735 deg

Mean motion: 14.12014542 rev/day

Mean motion (dot): 0.00001826 rev/day2

B* drag term: 0.00095481 1/REarth

Two-line elements (TLE)

Creation date: July 6, 2025, 10:36 p.m.

Reference frame: TEME

Reference center: EARTH

Epoch: July 6, 2025, 6:35 p.m. UTC

TLE line 0: 0 CZ-6A DEB

TLE line 1: 1 61084U 24140NA 25187.77439724 .00001826 00000-0 95481-3 0 9993

TLE line 2: 2 61084 88.9995 314.0339 0089070 251.0780 108.0735 14.12014542 44364

Live tracking on map

Real-time ground track for satellite CZ-6A DEB.

In-orbit conjunctions

A list of the most updated potential collisions computed for object CZ-6A DEB.

Target Orbit TCA Probability of collision Miss distance Type
FENGYUN 1C DEB SSO 2025-02-27 16:45:22 0.0006683169 335.0 (m) DEBRIS
TECHSAT 1B SSO 2025-02-27 09:21:21 0.0009025002 21.0 (m) PAYLOAD
FENGYUN 1C DEB SSO 2024-12-25 07:07:08 0.0001101914 411.0 (m) DEBRIS
NOAA 16 DEB SSO 2024-12-03 02:51:22 0.0001694392 866.0 (m) DEBRIS
CZ-6A DEB LEO 2024-11-13 02:29:35 0.0001307763 834.0 (m) DEBRIS

Associated space launch

18 Low Earth Orbit communication satellites with Ku, Q and V band payloads for the G60 constellation operated by Shanghai Spacecom Satellite Technology (SSST) with funding backed by the Shanghai local government. Initial constellation will consist of 1296 satellites by 2027 with long term plans to expand it to 12000 satellites.

CZ-6A DEB was lifted into orbit during the mission ‘Long March 6A | G60 Polar Group 01’, on board a Long March 6A space rocket.

The launch took place on Aug. 6, 2024, 6:42 a.m. from Launch Complex 9A.

For more information about the launch, click the button.

Launch to space Long March 6A | G60 Polar Group 01
Long March 6A | G60 Polar Group 01

Agency: N/A

Status: Launch Successful

Launch date: Aug. 6, 2024, 6:42 a.m. UTC

Rocket: Long March 6A

Launch pad: Launch Complex 9A

Location: Taiyuan Satellite Launch Center, People's Republic of China

...

Latest news about this satellite

News about space launch
Brightness of first Chinese broadband constellation satellites alarms astronomers

The first satellites of a Chinese broadband constellation are significantly brighter than those of Western systems, posing a new challenge for astronomers.

News about space launch
Chinese rocket stage breaks up into cloud of more than 700 pieces of space debris

HELSINKI — A Chinese Long March 6A rocket’s upper stage has fragmented into a cloud of over 700 pieces of space debris, adding to concerns about long-term orbital safety. China […]

News about space launch
China's Thousand Sails Megaconstellation Kicks Off with Dangerous Debris Field

China's Thousand Sails Megaconstellation Kicks Off with Dangerous Debris Field


Newsletter sign-up

Weekly statistics, charts and insights to help you stay on top of the space industry.